EW3204 Weather Reports


Display with metric or nautical units.
time (UTC)temp
F
wind
direction
speed
MPH
gust
MPH
rain 1hr
in
rain 24hr
in
rain mn
in
humidity
%
barometer
mb
20260503224557 85 209 16.0 0.0 0.00 0.00 0.00 20 1002.7
20260503223056 85 234 13.0 0.0 0.00 0.00 0.00 20 1002.9
20260503221555 86 139 8.0 0.0 0.00 0.00 0.00 20 1003.1
20260503220053 86 177 11.0 0.0 0.00 0.00 0.00 18 1003.3
20260503214600 86 192 14.0 0.0 0.00 0.00 0.00 18 1003.6
20260503213052 86 219 11.0 0.0 0.00 0.00 0.00 19 1003.6
20260503211553 86 202 13.0 0.0 0.00 0.00 0.00 21 1003.8
20260503210048 85 215 14.0 0.0 0.00 0.00 0.00 20 1003.8
20260503204555 86 206 13.0 0.0 0.00 0.00 0.00 19 1003.9
20260503203049 86 162 13.0 0.0 0.00 0.00 0.00 18 1004.2
20260503201543 87 162 12.0 0.0 0.00 0.00 0.00 16 1004.4
20260503200043 88 167 12.0 0.0 0.00 0.00 0.00 15 1004.5
20260503194545 87 184 12.0 0.0 0.00 0.00 0.00 15 1004.7
20260503193049 89 157 10.0 0.0 0.00 0.00 0.00 13 1004.9
20260503191543 87 179 12.0 0.0 0.00 0.00 0.00 14 1005.2
20260503190046 88 215 9.0 0.0 0.00 0.00 0.00 13 1005.5
20260503184539 87 189 9.0 0.0 0.00 0.00 0.00 11 1005.5
20260503183045 87 184 10.0 0.0 0.00 0.00 0.00 12 1005.6
20260503181539 88 152 9.0 0.0 0.00 0.00 0.00 11 1005.8
20260503180044 87 218 12.0 0.0 0.00 0.00 0.00 12 1005.8
20260503174531 85 93 5.0 0.0 0.00 0.00 0.00 19 1006.0
20260503173029 85 96 3.0 0.0 0.00 0.00 0.00 18 1006.1
20260503171535 84 82 3.0 0.0 0.00 0.00 0.00 19 1006.2
20260503081534 77 224 3.0 0.0 0.00 0.00 0.00 14 1006.1
20260503071513 78 291 1.0 0.0 0.00 0.00 0.00 14 1006.5
20260503054506 80 288 2.0 0.0 0.00 0.00 0.00 13 1006.8
20260503053008 81 252 1.0 0.0 0.00 0.00 0.00 13 1006.8
20260503051502 82 286 1.0 0.0 0.00 0.00 0.00 13 1006.7
20260503050002 82 286 1.0 0.0 0.00 0.00 0.00 13 1006.5
20260503044502 82 323 5.0 0.0 0.00 0.00 0.00 14 1006.3
20260503043001 82 303 4.0 0.0 0.00 0.00 0.00 13 1006.2
20260503041502 82 260 2.0 0.0 0.00 0.00 0.00 13 1005.9
20260503040001 84 272 3.0 0.0 0.00 0.00 0.00 13 1005.9
20260503034600 83 294 5.0 0.0 0.00 0.00 0.00 17 1005.6
20260503033103 84 263 6.0 0.0 0.00 0.00 0.00 17 1005.4
20260503031559 85 267 8.0 0.0 0.00 0.00 0.00 17 1005.3
20260503030059 86 226 8.0 0.0 0.00 0.00 0.00 13 1005.2
20260503024605 86 273 4.0 0.0 0.00 0.00 0.00 14 1005.0
20260503023103 87 230 4.0 0.0 0.00 0.00 0.00 15 1004.9
20260503021601 87 130 4.0 0.0 0.00 0.00 0.00 14 1004.6
20260503020100 88 96 6.0 0.0 0.00 0.00 0.00 12 1004.6
20260503014623 89 66 6.0 0.0 0.00 0.00 0.00 12 1004.4
20260503013056 89 43 6.0 0.0 0.00 0.00 0.00 11 1004.3
20260503011616 89 61 6.0 0.0 0.00 0.00 0.00 11 1004.3
20260503010058 90 22 7.0 0.0 0.00 0.00 0.00 11 1004.2
20260503004600 90 54 5.0 0.0 0.00 0.00 0.00 11 1004.3
20260503003057 90 52 6.0 0.0 0.00 0.00 0.00 10 1004.4
20260503001556 90 44 7.0 0.0 0.00 0.00 0.00 11 1004.3
20260503000051 90 77 6.0 0.0 0.00 0.00 0.00 11 1004.5
20260502234552 91 54 9.0 0.0 0.00 0.00 0.00 10 1004.5
20260502233053 91 46 6.0 0.0 0.00 0.00 0.00 10 1004.7
20260502231548 90 48 6.0 0.0 0.00 0.00 0.00 10 1004.9